Location: Allentsteig
(48.6833°N, 15.3167°E)
Time: 06:09:58
(UTC+00:00)

USA 238 DEB - Pass Details

Date: 23 January 2021
Orbit: 992 x 1220 km, 63.4° (Epoch: 05 March)

Event Time Altitude Azimuth Distance (km) Brightness Sun altitude
Rises 03:23:32 0° 154° (SSE) 3,711 6.8 -32.0°
Reaches altitude 10° 03:27:53 10° 126° (SE) 2,796 6.4 -31.3°
Maximum altitude 03:30:23 12° 103° (ESE) 2,645 6.5 -30.9°
Drops below altitude 10° 03:32:55 10° 81° (E) 2,849 6.8 -30.5°
Sets 03:37:26 0° 54° (NE) 3,860 7.4 -29.7°
